Kingman, AZ

12:31 AM MST on May 30, 2017 (GMT -0700)
Kingman

Weather History for KIGM - April, 2013

Change the Weather History Date:

Sunday, April 21, 2013

  Actual Average Record
Temperature  
Mean Temperature 64 °F 60 °F  
Max Temperature 84 °F 75 °F 91 °F (2009)
Min Temperature 43 °F 45 °F 28 °F (2005)
Degree Days  
Heating Degree Days 1 6  
Month to date heating degree days 141 173  
Since 1 July heating degree days 2866 3004  
Cooling Degree Days 0 1  
Month to date cooling degree days 2 14  
Year to date cooling degree days 8 17  
Growing Degree Days 14 (Base 50)    
Moisture  
Dew Point 12 °F    
Average Humidity 17    
Maximum Humidity 28    
Minimum Humidity 5    
Precipitation  
Precipitation 0.00 in 0.01 in 0.95 in (1988)
Month to date precipitation 0.05 0.33  
Year to date precipitation 1.18 3.25  
Sea Level Pressure  
Sea Level Pressure 29.88 in    
Wind  
Wind Speed 8 mph (SSW)    
Max Wind Speed 12 mph    
Max Gust Speed 13 mph    
Visibility 10 miles    
Events      
T = Trace of Precipitation, MM = Missing Value Source: NWS Daily Summary

Daily Weather History Graph

Daily Weather History Graph

Search for Another Location

Airport or City:

Trip Planner

Search our weather history database for the weather conditions in past years. The results will help you decide how hot, cold, wet, or windy it might be!

Date:

Astronomy

Apr. 21, 2013 Rise Set
Actual Time 5:55 AM MST 7:13 PM MST
Civil Twilight 5:29 AM MST 7:40 PM MST
Nautical Twilight 4:57 AM MST 8:12 PM MST
Astronomical Twilight 4:24 AM MST 8:45 PM MST
Moon 3:11 PM MST (4/21) 3:10 AM MST (4/21)
Length of Visible Light 14h 11m
Length of Day
13h 18m
Waxing Gibbous, 81% of the Moon is Illuminated
Apr 21
Waxing Gibbous
Apr 25
Full
May 2
Last Quarter
May 9
New
May 17
First Quarter

Hourly Weather History & Observations

Time (MST) Temp. Windchill Dew Point Humidity Pressure Visibility Wind Dir Wind Speed Gust Speed Precip Events Conditions
12:51 AM 46.9 °F - 12.9 °F 25% 29.91 in 10.0 mi Calm Calm - N/A   Clear
1:51 AM 52.0 °F - 14.0 °F 22% 29.90 in 10.0 mi SSE 4.6 mph - N/A   Clear
2:51 AM 46.9 °F - 14.0 °F 27% 29.90 in 10.0 mi Calm Calm - N/A   Clear
3:51 AM 48.9 °F - 12.9 °F 24% 29.90 in 10.0 mi SW 4.6 mph - N/A   Clear
4:51 AM 44.1 °F 42.5 °F 12.9 °F 28% 29.90 in 10.0 mi SW 3.5 mph - N/A   Clear
5:51 AM 44.1 °F 41.5 °F 14.0 °F 30% 29.92 in 10.0 mi South 4.6 mph - N/A   Clear
6:51 AM 53.1 °F - 16.0 °F 23% 29.94 in 10.0 mi South 3.5 mph - N/A   Clear
7:51 AM 62.1 °F - 16.0 °F 17% 29.94 in 10.0 mi Calm Calm - N/A   Clear
8:51 AM 66.9 °F - 15.1 °F 14% 29.95 in 10.0 mi SW 3.5 mph - N/A   Clear
9:51 AM 75.9 °F - 17.1 °F 11% 29.94 in 10.0 mi West 8.1 mph - N/A   Clear
10:51 AM 77.0 °F - 14.0 °F 9% 29.94 in 10.0 mi SSW 9.2 mph - N/A   Clear
11:51 AM 80.1 °F - 12.9 °F 8% 29.92 in 10.0 mi SW 15.0 mph 21.9 mph N/A   Clear
12:51 PM 82.0 °F - 10.9 °F 7% 29.91 in 10.0 mi SW 15.0 mph 21.9 mph N/A   Clear
1:51 PM 84.0 °F - 6.1 °F 5% 29.88 in 10.0 mi WSW 16.1 mph - N/A   Clear
2:51 PM 82.9 °F - 9.0 °F 6% 29.87 in 10.0 mi SW 12.7 mph 23.0 mph N/A   Clear
3:51 PM 82.9 °F - 5.0 °F 5% 29.84 in 10.0 mi SW 17.3 mph 25.3 mph N/A   Clear
4:51 PM 82.9 °F - 6.1 °F 5% 29.84 in 10.0 mi SW 15.0 mph - N/A   Clear
5:51 PM 81.0 °F - 8.1 °F 6% 29.83 in 10.0 mi SW 12.7 mph - N/A   Clear
6:51 PM 77.0 °F - 10.9 °F 8% 29.81 in 10.0 mi SSW 13.8 mph - N/A   Clear
7:51 PM 71.1 °F - 10.9 °F 10% 29.81 in 10.0 mi South 10.4 mph - N/A   Clear
8:51 PM 61.0 °F - 12.0 °F 15% 29.84 in 10.0 mi South 9.2 mph - N/A   Clear
9:51 PM 68.0 °F - 12.0 °F 11% 29.82 in 10.0 mi South 11.5 mph - N/A   Clear
10:51 PM 60.1 °F - 12.0 °F 15% 29.83 in 10.0 mi NE 4.6 mph - N/A   Clear
11:51 PM 63.0 °F - 12.9 °F 14% 29.81 in 10.0 mi South 8.1 mph - N/A   Clear